[[{"header":{"parameterUnit":"m.s-1","parameterCategory":1,"la1":30.2992,"la2":30.254,"lo1":-89.0895,"lo2":-89.0443,"dy":0.0025,"dx":0.0025,"nx":19,"ny":19,"refTime":"2026-05-14T03:00:00:Z","depth":0,"parameterNumber":2,"parameterNumberName":"U-component_of_WINDS"},"data":[0,0,0,-5.4607,-5.4608,-5.4688,-5.4688,-5.4804,-5.4805,0,0,0,0,0,0,0,0,0,0,0,-5.4593,-5.4594,-5.4606,-5.4609,-5.4688,-5.4688,-5.4804,-5.4805,0,0,0,0,0,0,0,0,0,0,0,-5.4592,-5.4594,-5.4595,-5.4609,-5.4688,-5.4688,-5.4803,-5.4738,0,0,0,0,0,0,0,0,0,0,-5.4658,-5.4656,-5.4593,-5.4595,-5.461,-5.4688,-5.4688,-5.4735,-5.4742,-5.4774,0,-5.4807,0,-5.4808,-5.4814,-5.4814,0,0,0,-5.4601,-5.4649,-5.4662,-5.4595,-5.461,-5.4688,-5.465,-5.4739,-5.4747,-5.4784,-5.4808,-5.4812,-5.481,-5.4815,-5.4815,-5.5031,-5.5032,0,0,-5.4596,-5.4612,-5.4657,-5.4668,-5.4659,-5.4647,-5.4652,-5.4744,-5.477,-5.4809,-5.4815,-5.4812,-5.4816,-5.4817,-5.503,-5.5031,0,0,0,-5.4589,-5.4609,-5.4619,-5.4664,-5.4677,-5.465,-5.4656,-5.4766,-5.4768,-5.4816,-5.4813,-5.4816,-5.4818,-5.5028,-5.503,-5.5112,0,0,0,-5.4586,-5.4605,-5.4618,-5.4628,-5.4676,-5.4723,-5.4676,-5.4762,-5.4772,-5.4813,-5.4816,-5.4819,-5.5027,-5.5029,-5.5106,-5.5147,0,0,0,-5.4584,-5.4604,-5.462,-5.4629,-5.4664,-5.4721,-5.4728,-5.4764,-5.4771,-5.4814,-5.482,-5.5026,-5.5029,-5.5102,-5.5139,-5.5207,0,0,0,-5.4586,-5.4691,-5.4621,-5.4738,-5.4663,-5.4773,-5.4727,-5.4808,-5.4855,-5.4817,-5.5027,-5.503,-5.51,-5.5134,-5.5202,-5.5264,-5.5293,0,0,-5.4727,-5.4708,-5.4776,-5.4716,-5.4841,-5.4759,-5.4897,-5.4925,-5.4915,-5.4992,-5.4997,-5.5108,-5.5138,-5.5206,-5.5454,-5.5476,0,0,0,-5.4825,-5.4873,-5.4904,-5.4951,-5.4976,-5.5001,-5.5007,-5.5018,-5.5084,-5.4958,-5.5152,-5.517,-5.5209,-5.5238,-5.5257,-5.5288,-5.5045,-5.5045,-5.5045,-5.5043,-5.5027,-5.5136,-5.5129,-5.5176,-5.5182,-5.5217,-5.5232,-5.5201,-5.5247,-5.5269,-5.5422,-5.5457,-5.5471,-5.5504,-5.5304,-5.5304,-5.5304,-5.5304,-5.5245,-5.5309,-5.5268,-5.5359,-5.534,-5.5416,-5.5427,-5.5402,-5.5469,-5.5404,-5.5437,-5.5363,-5.5497,-5.5524,-5.531,-5.5309,-5.5309,-5.5308,-5.5308,-5.5383,-5.5411,-5.5424,-5.5491,-5.5545,-5.5534,-5.5601,-5.5582,-5.5564,-5.5598,-5.5617,-5.5616,-5.5609,-5.561,-5.561,-5.5611,-5.5611,-5.5611,-5.5612,-5.5519,-5.5532,-5.5591,-5.5629,-5.5657,-5.5692,-5.5702,-5.5728,-5.5752,-5.5733,-5.5733,-5.5695,-5.5514,-5.5467,-5.562,-5.5618,-5.5617,-5.5617,-5.5616,-5.5723,-5.5675,-5.5766,-5.5795,-5.5838,-5.5892,-5.5869,-5.5925,-5.5945,-5.5978,-5.5935,-5.5806,-5.5784,-5.5769,-5.5729,-5.594,-5.594,-5.594,-5.594,-5.5837,-5.5826,-5.5915,-5.5962,-5.6006,-5.5995,-5.6097,-5.6107,-5.6108,-5.6119,-5.6087,-5.6035,-5.602,-5.6007,-5.5987,-5.5949,-5.6211,-5.6212,-5.6212,-5.5961,-5.5954,-5.6044,-5.6047,-5.608,-5.6109,-5.6204,-5.6258,-5.6251,-5.6223,-5.6127,-5.6115,-5.6031,-5.6005,-5.5969,-5.5938,-5.5869,0,0]},{"header":{"parameterUnit":"m.s-1","parameterCategory":1,"la1":30.2992,"la2":30.254,"lo1":-89.0895,"lo2":-89.0443,"dy":0.0025,"dx":0.0025,"nx":19,"ny":19,"refTime":"2026-05-14T03:00:00:Z","depth":0,"parameterNumber":3,"parameterNumberName":"V-component_of_WINDS"},"data":[0,0,0,3.1252,3.1251,3.1178,3.1178,3.1093,3.1092,0,0,0,0,0,0,0,0,0,0,0,3.1282,3.1282,3.1253,3.1251,3.1178,3.1178,3.1093,3.1092,0,0,0,0,0,0,0,0,0,0,0,3.1283,3.1282,3.1282,3.1251,3.1178,3.1177,3.1093,3.1144,0,0,0,0,0,0,0,0,0,0,3.1214,3.125,3.1282,3.1282,3.125,3.1178,3.1177,3.1147,3.1141,3.1131,0,3.1127,0,3.1109,3.1088,3.1087,0,0,0,3.1243,3.1255,3.1228,3.1282,3.125,3.1178,3.1209,3.1143,3.1137,3.1124,3.1126,3.1122,3.1107,3.1087,3.1087,3.1062,3.1062,0,0,3.1247,3.1273,3.1233,3.1225,3.124,3.1211,3.1207,3.114,3.1142,3.1125,3.112,3.1106,3.1087,3.1086,3.1062,3.1062,0,0,0,3.1264,3.1276,3.1251,3.1229,3.1215,3.1209,3.1204,3.1145,3.1135,3.1119,3.1105,3.1086,3.1085,3.1062,3.1062,3.1101,0,0,0,3.1266,3.1286,3.1253,3.1267,3.1217,3.118,3.1211,3.1139,3.1131,3.1106,3.1086,3.1085,3.1061,3.1062,3.1099,3.1114,0,0,0,3.1284,3.1288,3.1281,3.1269,3.1239,3.118,3.1166,3.1137,3.1123,3.1087,3.1084,3.1061,3.1062,3.1098,3.1111,3.1117,0,0,0,3.131,3.1313,3.1282,3.1279,3.124,3.1206,3.1166,3.1138,3.1112,3.1086,3.1061,3.1062,3.1097,3.111,3.1115,3.1126,3.1133,0,0,3.1327,3.1316,3.1312,3.1283,3.1262,3.1215,3.1198,3.1147,3.1118,3.1082,3.1081,3.11,3.1111,3.1116,3.1162,3.1168,0,0,0,3.1327,3.1325,3.1314,3.1293,3.1258,3.1228,3.1179,3.1161,3.113,3.1106,3.1101,3.1108,3.1109,3.1113,3.1118,3.1119,3.1065,3.1065,3.1065,3.1387,3.1354,3.1347,3.1306,3.1286,3.1237,3.1217,3.1183,3.1152,3.1152,3.1141,3.1173,3.1179,3.1183,3.1183,3.1143,3.1143,3.1144,3.1144,3.1411,3.1403,3.1367,3.1347,3.1311,3.1292,3.1246,3.1225,3.1201,3.1178,3.1178,3.1156,3.119,3.1189,3.1146,3.1146,3.1145,3.1145,3.1145,3.1447,3.1438,3.1419,3.1387,3.1366,3.1322,3.1303,3.127,3.1237,3.1238,3.1223,3.1222,3.1218,3.1233,3.1233,3.1233,3.1233,3.1234,3.1234,3.1493,3.147,3.146,3.1426,3.1409,3.1383,3.1335,3.1317,3.1288,3.1265,3.1264,3.1234,3.12,3.1193,3.1235,3.1235,3.1235,3.1235,3.1234,3.153,3.1518,3.1502,3.1486,3.1444,3.1425,3.1384,3.135,3.133,3.1321,3.1292,3.1272,3.1256,3.1252,3.1246,3.1299,3.1299,3.1299,3.1299,3.1562,3.1552,3.153,3.1507,3.148,3.1443,3.1424,3.1388,3.1346,3.1332,3.1319,3.1308,3.1305,3.1291,3.1286,3.1279,3.134,3.134,3.134,3.1584,3.157,3.1563,3.1527,3.1492,3.1462,3.1444,3.1417,3.1367,3.1341,3.132,3.1318,3.1299,3.1295,3.1268,3.1261,3.1248,0,0]}]]